Weather History for Beaufort MCAS, SC

Change the Weather History Date:

Tuesday, February 12, 2013

  Actual Average Record
Temperature  
Mean Temperature 56 °F -  
Max Temperature 60 °F 61 °F 36 °F (2014)
Min Temperature 53 °F 39 °F 32 °F (2014)
Degree Days  
Heating Degree Days 8    
Growing Degree Days 6 (Base 50)    
Moisture  
Dew Point 53 °F    
Average Humidity 90    
Maximum Humidity 96    
Minimum Humidity 69    
Precipitation  
Precipitation 1.46 in - - ()
Sea Level Pressure  
Sea Level Pressure 30.02 in    
Wind  
Wind Speed 4 mph (NNE)    
Max Wind Speed 13 mph    
Max Gust Speed 17 mph    
Visibility 6 miles    
Events Rain , Thunderstorm    
Averages and records for this station are not official NWS values.
T = Trace of Precipitation, MM = Missing Value Source: NWS Daily Summary

Daily Weather History Graph

Daily Weather History Graph

Search for Another Location

Airport:

Trip Planner

Search our weather history database for the weather conditions in past years. The results will help you decide how hot, cold, wet, or windy it might be!

Date:

Astronomy

Feb. 12, 2013 Rise Set
Actual Time 7:08 AM EST 6:06 PM EST
Civil Twilight 6:43 AM EST 6:31 PM EST
Nautical Twilight 6:14 AM EST 7:00 PM EST
Astronomical Twilight 5:45 AM EST 7:29 PM EST
Moon 8:16 AM EST (2/12) 8:51 PM EST (2/12)
Length of Visible Light 11h 48m
Length of Day
10h 58m
Waxing Crescent, 7% of the Moon is Illuminated
Feb 12
Waxing Crescent
Feb 17
First Quarter
Feb 25
Full
Mar 4
Last Quarter
Mar 11
New

Hourly Weather History & Observations

Time (EST) Temp. Dew Point Humidity Pressure Visibility Wind Dir Wind Speed Gust Speed Precip Events Conditions
12:56 AM 60.1 °F 57.9 °F 93% 30.09 in 7.0 mi Calm Calm - 0.02 in Rain Light Rain
1:56 AM 59.0 °F 57.9 °F 96% 30.07 in 5.0 mi Calm Calm - 0.01 in Rain Light Rain
2:09 AM 59.0 °F 57.2 °F 94% 30.07 in 4.0 mi Calm Calm - 0.01 in Rain Light Rain
2:56 AM 59.0 °F 57.9 °F 96% 30.05 in 6.0 mi Calm Calm - 0.05 in Rain Light Rain
3:03 AM 59.0 °F 57.2 °F 94% 30.06 in 8.0 mi Calm Calm - 0.00 in   Overcast
3:56 AM 59.0 °F 57.0 °F 93% 30.03 in 10.0 mi Calm Calm - 0.08 in   Overcast
4:15 AM 59.0 °F 57.2 °F 94% 30.05 in 9.0 mi NW 5.8 mph - 0.00 in Rain Light Rain
4:37 AM 60.8 °F 57.2 °F 88% 30.08 in 8.0 mi West 5.8 mph - 0.01 in Rain Light Rain
4:56 AM 59.0 °F 57.9 °F 96% 30.07 in 6.0 mi West 3.5 mph - 0.02 in Rain Light Rain
5:53 AM 59.0 °F 57.2 °F 94% 30.03 in 10.0 mi NNW 3.5 mph - 0.08 in   Overcast
5:56 AM 60.1 °F 57.9 °F 93% 30.04 in 10.0 mi NNW 4.6 mph - 0.08 in   Overcast
6:56 AM 59.0 °F 57.9 °F 96% 30.08 in 10.0 mi WNW 4.6 mph - 0.00 in   Overcast
7:16 AM 59.0 °F 57.2 °F 94% 30.07 in 2.0 mi NNW 4.6 mph - 0.01 in Rain Light Rain
7:39 AM 59.0 °F 57.2 °F 94% 30.07 in 2.0 mi NNW 5.8 mph - 0.01 in Rain Light Rain
7:56 AM 59.0 °F 55.9 °F 90% 30.06 in 2.0 mi North 4.6 mph - 0.01 in Rain Light Rain
8:21 AM 59.0 °F 55.4 °F 88% 30.07 in 2.0 mi NNW 3.5 mph - 0.00 in   Overcast
8:44 AM 59.0 °F 55.4 °F 88% 30.10 in 10.0 mi NNW 8.1 mph - 0.00 in   Overcast
8:56 AM 57.9 °F 55.9 °F 93% 30.10 in 1.5 mi North 10.4 mph - 0.02 in Rain Light Rain
9:01 AM 57.2 °F 55.4 °F 94% 30.11 in 1.5 mi NNW 11.5 mph - 0.01 in Rain , Thunderstorm Light Thunderstorms and Rain
9:14 AM 57.2 °F 55.4 °F 94% 30.13 in 1.0 mi NW 12.7 mph - 0.08 in Rain , Thunderstorm Thunderstorms and Rain
9:44 AM 55.4 °F 53.6 °F 94% 30.12 in 3.0 mi NNW 10.4 mph - 0.15 in Rain Light Rain
9:56 AM 55.0 °F 52.0 °F 89% 30.12 in 3.0 mi North 9.2 mph - 0.16 in Rain Light Rain
10:03 AM 55.4 °F 51.8 °F 88% 30.12 in 2.0 mi North 11.5 mph - 0.03 in Rain Rain
10:12 AM 53.6 °F 51.8 °F 94% 30.11 in 2.0 mi North 12.7 mph - 0.04 in Rain Rain
10:45 AM 53.6 °F 51.8 °F 94% 30.12 in 10.0 mi NNW 9.2 mph - 0.04 in   Overcast
10:56 AM 54.0 °F 51.1 °F 90% 30.12 in 6.0 mi North 8.1 mph - 0.04 in Rain Light Rain
11:03 AM 53.6 °F 51.8 °F 94% 30.11 in 10.0 mi North 8.1 mph - 0.00 in Rain Light Rain
11:56 AM 55.0 °F 51.1 °F 86% 30.08 in 10.0 mi NNE 5.8 mph - 0.00 in Rain Light Rain
12:03 PM 55.4 °F 51.8 °F 88% 30.08 in 10.0 mi NNE 5.8 mph - 0.00 in Rain Light Rain
12:41 PM 55.4 °F 50.0 °F 82% 30.06 in 10.0 mi Calm Calm - 0.00 in Rain Light Rain
12:48 PM 55.4 °F 50.0 °F 82% 30.06 in 10.0 mi NNE 3.5 mph - 0.00 in Rain Light Rain
12:56 PM 57.0 °F 50.0 °F 77% 30.06 in 10.0 mi Calm Calm - 0.00 in Rain Light Rain
1:03 PM 57.2 °F 50.0 °F 77% 30.05 in 10.0 mi Calm Calm - 0.00 in Rain Light Rain
1:56 PM 60.1 °F 50.0 °F 69% 30.02 in 10.0 mi ENE 4.6 mph - 0.00 in   Mostly Cloudy
2:56 PM 60.1 °F 50.0 °F 69% 30.02 in 10.0 mi Calm Calm - N/A   Overcast
3:56 PM 59.0 °F 52.0 °F 78% 29.99 in 10.0 mi SE 4.6 mph - 0.01 in Rain Light Rain
4:56 PM 55.9 °F 54.0 °F 93% 29.98 in 3.0 mi SE 4.6 mph - 0.13 in Rain Rain
5:56 PM 55.9 °F 54.0 °F 93% 29.99 in 4.0 mi Calm Calm - 0.08 in Rain Heavy Rain
6:08 PM 55.4 °F 53.6 °F 94% 29.99 in 7.0 mi ENE 3.5 mph - 0.01 in Rain Rain
6:15 PM 55.4 °F 53.6 °F 94% 29.99 in 4.0 mi East 3.5 mph - 0.04 in Rain Heavy Rain
6:56 PM 55.0 °F 53.1 °F 93% 29.95 in 10.0 mi East 6.9 mph - 0.21 in Rain Light Rain
7:24 PM 53.6 °F 51.8 °F 94% 29.95 in 4.0 mi ENE 6.9 mph - 0.06 in Rain Rain
7:34 PM 53.6 °F 50.0 °F 88% 29.94 in 6.0 mi East 6.9 mph - 0.07 in Rain Light Rain
7:56 PM 53.1 °F 50.0 °F 89% 29.94 in 10.0 mi East 8.1 mph - 0.07 in   Overcast
8:34 PM 53.6 °F 51.8 °F 94% 29.91 in 10.0 mi ENE 8.1 mph - 0.00 in Rain Light Rain
8:52 PM 53.6 °F 51.8 °F 94% 29.93 in 8.0 mi NNE 5.8 mph - 0.01 in Rain Rain
8:56 PM 53.1 °F 51.1 °F 93% 29.94 in 7.0 mi NNW 6.9 mph - 0.02 in Rain Rain
9:05 PM 53.6 °F 51.8 °F 94% 29.94 in 4.0 mi North 6.9 mph - 0.06 in Rain Heavy Rain
9:25 PM 53.6 °F 51.8 °F 94% 29.93 in 4.0 mi NW 11.5 mph 17.3 mph 0.14 in Rain Heavy Rain
9:36 PM 53.6 °F 51.8 °F 94% 29.93 in 4.0 mi NE 9.2 mph - 0.18 in Rain Heavy Rain
9:56 PM 53.1 °F 50.0 °F 89% 29.92 in 5.0 mi ENE 6.9 mph - 0.24 in Rain Rain
10:19 PM 53.6 °F 50.0 °F 88% 29.91 in 4.0 mi NE 9.2 mph - 0.08 in Rain Heavy Rain
10:48 PM 53.6 °F 51.8 °F 94% 29.89 in 7.0 mi East 8.1 mph - 0.11 in Rain Rain
10:56 PM 53.1 °F 51.1 °F 93% 29.89 in 4.0 mi East 8.1 mph - 0.15 in Rain Rain
11:16 PM 53.6 °F 51.8 °F 94% 29.88 in 10.0 mi East 5.8 mph - 0.01 in Rain Light Rain
11:24 PM 53.6 °F 51.8 °F 94% 29.89 in 10.0 mi East 5.8 mph - 0.01 in Rain Light Rain
11:56 PM 54.0 °F 51.1 °F 90% 29.88 in 4.0 mi East 10.4 mph - 0.06 in Rain Rain